Location: Breezy Point Observatory
(38.9725°N, 81.7133°W)
Time: 20:19:49
(UTC-04:00)

Hubble Space Telescope - Visible Passes

Search period start: 24 June 2017 00:00
Search period end: 04 July 2017 00:00
Orbit: 538 x 541 km, 28.5° (Epoch: 24 June)

Date Brightness Start Highest point End Pass type
(mag) Time Alt. Az. Time Alt. Az. Time Alt. Az.
01 Jul 3.0 04:47:19 10° S 04:48:27 11° SSE 04:49:43 10° SE visible
02 Jul 2.8 04:37:39 13° S 04:38:14 13° SSE 04:40:10 10° SE visible
03 Jul 2.7 04:28:00 15° SSE 04:28:02 15° SSE 04:30:22 10° SE visible
